Weather Roundup
Issued by NWS Chicago, IL

Home | Current Version | Previous Version | Graphics & Text | Print | Product List | Glossary On
Versions: 1 2 3 4 5 6 7 8 9 10 11 12 13 14 15 16 17 18 19 20 21 22 23 24 25 26 27 28 29 30 31 32 33 34 35 36 37 38 39 40 41 42 43 44 45 46 47 48 49 50
000
NZUS59 KLOT 290521
HRRLOT

CHICAGO AREA WEATHER ROUNDUP
NATIONAL WEATHER SERVICE CHICAGO/ROMEOVILLE IL
1200 AM CDT SAT AUG 29 2015

NOTE: "FAIR" INDICATES FEW OR NO CLOUDS BELOW 12,000 FEET WITH NO
SIGNIFICANT WEATHER AND/OR OBSTRUCTIONS TO VISIBILITY.

* THESE STATIONS ARE NOT UNDER NWS QUALITY CONTROL. THEY ALSO MAY NOT
  REPORT WEATHER SUCH AS PRECIPITATION OR FOG.

ILZ005-006-012>014-019>023-290600-
NORTHEAST ILLINOIS

CITY           SKY/WX    TMP DP  RH WIND       PRES   REMARKS
OHARE          CLOUDY    70  63  78 NE5       30.08R
MIDWAY         CLOUDY    72  60  66 SE6       30.07S
AURORA         CLOUDY    67  62  84 CALM      30.08R
LANSING*       CLOUDY    66  59  78 SE6       30.08S
JOLIET*        CLOUDY    68  62  81 SE3       30.07R
WAUKEGAN       CLOUDY    65  63  93 NE5       30.09S FOG
DUPAGE AIRPORT CLOUDY    68  61  78 E6        30.07S
WHEELING       CLOUDY    68  63  84 CALM      30.10R
KANKAKEE*      MOCLDY    66  61  85 SE7       30.07S
MORRIS*        CLOUDY    66  62  86 SE6       30.06R
LEWIS AIRPORT* CLOUDY    66  59  78 SE5       30.08R
NORTHERLY IS     N/A     66  63  90 S2          N/A
$$

WIZ051-052-058>065-066-070>072-290600-
SOUTHEAST WISCONSIN

CITY           SKY/WX    TMP DP  RH WIND       PRES   REMARKS
MILWAUKEE      LGT RAIN  63  61  93 E7        30.09F VSB 1/2
KENOSHA*       LGT RAIN  65  63  93 E8        30.09F FOG
RACINE*        LGT RAIN  63  61  93 E5        30.11F VSB 1
BURLINGTON     RAIN      62  60  94 E10       30.07F
WAUKESHA       LGT RAIN  61  59  94 E15       30.07F
WEST BEND      RAIN      59  55  88 CALM      30.09F
$$

INZ001>003-010>013-019-020-290600-
NORTHWEST INDIANA

CITY           SKY/WX    TMP DP  RH WIND       PRES   REMARKS
GARY*          CLOUDY    69  60  73 SE5       30.09S
MICHIGAN CITY* NOT AVBL
RENSSELAER*    NOT AVBL
VALPARAISO     CLOUDY    65  60  84 E6        30.10S
$$

LMZ740>746-290600-
SOUTHERN LAKE MICHIGAN

STATION/POSITION TIME  SKY/WX   TEMP WIND        PRES    VSBY
                                AIR  DIR/SP/G
                 (UTC)          (F)  (DEG/KT/KT) (MB)    (MI)
HARRISON CRIB    0400            70   90/ 13/ 14   N/A
BURNHAM HARBOR   0500            66  160/  1/  6   N/A
CALUMET HARBOR   NOT AVBL
BURNS HARBOR     0400            73  130/  7/ 13 1019.3S
MICHIGAN CITY    0400            70  100/  4/  6   N/A
$$

ABBREVIATIONS USED IN REMARKS
   TC - TEMPERATURE IN CELSIUS
  WCI - WIND CHILL INDEX
   HX - HEAT INDEX
  VSB - VISIBILITY
$$


USA.gov is the U.S. government's official web portal to all federal, state and local government web resources and services.